[[{"header":{"parameterUnit":"m.s-1","parameterCategory":1,"la1":30.2992,"la2":30.254,"lo1":-89.0895,"lo2":-89.0443,"dy":0.0025,"dx":0.0025,"nx":19,"ny":19,"refTime":"2026-05-15T09:00:00:Z","depth":0,"parameterNumber":2,"parameterNumberName":"U-component_of_WINDS"},"data":[0,0,0,-2.572,-2.5722,-2.5806,-2.5807,-2.5919,-2.592,0,0,0,0,0,0,0,0,0,0,0,-2.5697,-2.5698,-2.572,-2.5722,-2.5806,-2.5807,-2.5919,-2.592,0,0,0,0,0,0,0,0,0,0,0,-2.5697,-2.5698,-2.5699,-2.5722,-2.5806,-2.5807,-2.5918,-2.5853,0,0,0,0,0,0,0,0,0,0,-2.577,-2.5752,-2.5698,-2.5699,-2.5723,-2.5806,-2.5807,-2.585,-2.5857,-2.5882,0,-2.5905,0,-2.5914,-2.5928,-2.5928,0,0,0,-2.572,-2.5746,-2.5766,-2.5699,-2.5723,-2.5806,-2.5768,-2.5854,-2.5862,-2.5892,-2.5907,-2.5911,-2.5916,-2.5928,-2.5929,-2.6078,-2.6079,0,0,-2.5715,-2.5714,-2.5761,-2.5772,-2.5759,-2.5765,-2.577,-2.5859,-2.5875,-2.5907,-2.5913,-2.5918,-2.5929,-2.593,-2.6077,-2.6078,0,0,0,-2.5703,-2.5711,-2.5729,-2.5767,-2.5782,-2.5767,-2.5774,-2.5871,-2.5877,-2.5915,-2.5919,-2.593,-2.5931,-2.6076,-2.6078,-2.6114,0,0,0,-2.57,-2.5704,-2.5727,-2.5727,-2.5781,-2.5828,-2.5784,-2.5871,-2.5881,-2.5919,-2.593,-2.5932,-2.6076,-2.6077,-2.6111,-2.6131,0,0,0,-2.5691,-2.5702,-2.5716,-2.5727,-2.5763,-2.5826,-2.5837,-2.5873,-2.5884,-2.5928,-2.5933,-2.6075,-2.6077,-2.6108,-2.6127,-2.6169,0,0,0,-2.5681,-2.5748,-2.5716,-2.5793,-2.5762,-2.5848,-2.5837,-2.5901,-2.5943,-2.5931,-2.6076,-2.6077,-2.6108,-2.6124,-2.6166,-2.6203,-2.6219,0,0,-2.5764,-2.5758,-2.5803,-2.5777,-2.5868,-2.5835,-2.5932,-2.5972,-2.5978,-2.6044,-2.6048,-2.6112,-2.6127,-2.6168,-2.6308,-2.632,0,0,0,-2.5829,-2.5861,-2.5885,-2.5925,-2.5957,-2.5986,-2.6011,-2.6026,-2.6082,-2.6012,-2.6139,-2.6148,-2.6172,-2.619,-2.6201,-2.6221,-2.6086,-2.6086,-2.6085,-2.5945,-2.5948,-2.6022,-2.6035,-2.6074,-2.6099,-2.613,-2.6155,-2.6147,-2.6177,-2.6197,-2.6281,-2.6302,-2.631,-2.6331,-2.6217,-2.6217,-2.6218,-2.6218,-2.6067,-2.6113,-2.61,-2.6168,-2.617,-2.6227,-2.6254,-2.6246,-2.63,-2.6267,-2.6289,-2.6252,-2.6323,-2.6342,-2.622,-2.622,-2.622,-2.6219,-2.6219,-2.6143,-2.6165,-2.6181,-2.6238,-2.6281,-2.6292,-2.6343,-2.6345,-2.6346,-2.6368,-2.6388,-2.6387,-2.6386,-2.6377,-2.6377,-2.6378,-2.6378,-2.6378,-2.6378,-2.6215,-2.6232,-2.6275,-2.6313,-2.6338,-2.6371,-2.6396,-2.6421,-2.6448,-2.6445,-2.6445,-2.6434,-2.633,-2.6303,-2.6383,-2.6382,-2.6381,-2.6381,-2.6381,-2.6337,-2.6309,-2.6375,-2.64,-2.6444,-2.6486,-2.6487,-2.6536,-2.6557,-2.6582,-2.6566,-2.6489,-2.6483,-2.6474,-2.6452,-2.6566,-2.6566,-2.6566,-2.6566,-2.6401,-2.6397,-2.6464,-2.6503,-2.6542,-2.6548,-2.6622,-2.6641,-2.6658,-2.667,-2.6654,-2.6625,-2.6617,-2.6615,-2.6604,-2.6583,-2.6727,-2.6728,-2.6728,-2.6475,-2.6475,-2.6538,-2.6552,-2.6587,-2.6616,-2.6685,-2.6731,-2.6743,-2.6734,-2.668,-2.6673,-2.6626,-2.6611,-2.66,-2.6583,-2.6545,0,0]},{"header":{"parameterUnit":"m.s-1","parameterCategory":1,"la1":30.2992,"la2":30.254,"lo1":-89.0895,"lo2":-89.0443,"dy":0.0025,"dx":0.0025,"nx":19,"ny":19,"refTime":"2026-05-15T09:00:00:Z","depth":0,"parameterNumber":3,"parameterNumberName":"V-component_of_WINDS"},"data":[0,0,0,4.4296,4.4298,4.4404,4.4404,4.4557,4.4558,0,0,0,0,0,0,0,0,0,0,0,4.4277,4.4278,4.4295,4.4298,4.4404,4.4404,4.4556,4.4558,0,0,0,0,0,0,0,0,0,0,0,4.4276,4.4278,4.428,4.4299,4.4404,4.4404,4.4556,4.447,0,0,0,0,0,0,0,0,0,0,4.4364,4.4359,4.4277,4.428,4.4299,4.4404,4.4404,4.4465,4.4475,4.4517,0,4.4559,0,4.4561,4.457,4.457,0,0,0,4.4289,4.4351,4.4369,4.428,4.4301,4.4404,4.4353,4.4471,4.4482,4.453,4.4561,4.4566,4.4564,4.4571,4.4572,4.4848,4.485,0,0,4.4283,4.4302,4.4361,4.4376,4.4363,4.435,4.4357,4.4477,4.4511,4.4562,4.4569,4.4566,4.4572,4.4573,4.4846,4.4848,0,0,0,4.4273,4.4299,4.4312,4.4371,4.4388,4.4353,4.4361,4.4506,4.4509,4.4571,4.4568,4.4573,4.4575,4.4844,4.4847,4.4952,0,0,0,4.4269,4.4293,4.431,4.4323,4.4387,4.4449,4.4388,4.4501,4.4514,4.4567,4.4573,4.4577,4.4842,4.4846,4.4945,4.4997,0,0,0,4.4266,4.4292,4.4312,4.4324,4.437,4.4447,4.4456,4.4503,4.4513,4.457,4.4577,4.4841,4.4845,4.4938,4.4987,4.5074,0,0,0,4.4268,4.4404,4.4314,4.4464,4.437,4.4511,4.4455,4.456,4.4622,4.4574,4.4843,4.4847,4.4936,4.4981,4.5068,4.5151,4.5188,0,0,4.445,4.4426,4.4513,4.4436,4.4599,4.4494,4.4671,4.4709,4.4697,4.4798,4.4804,4.4947,4.4986,4.5073,4.5389,4.5419,0,0,0,4.4578,4.464,4.4679,4.474,4.4773,4.4805,4.4814,4.4828,4.4913,4.4753,4.5002,4.5025,4.5075,4.5114,4.5139,4.5179,4.4866,4.4866,4.4865,4.4863,4.484,4.4981,4.4971,4.503,4.5038,4.5083,4.5102,4.5062,4.5121,4.5151,4.5346,4.5392,4.541,4.5453,4.5194,4.5194,4.5194,4.5195,4.5127,4.5211,4.5153,4.527,4.5244,4.5341,4.5353,4.5321,4.5406,4.5322,4.5365,4.5273,4.5443,4.5479,4.5202,4.5201,4.52,4.5199,4.5199,4.531,4.5346,4.5361,4.5445,4.5512,4.5496,4.558,4.5554,4.5529,4.5572,4.5599,4.5597,4.559,4.5587,4.5587,4.5588,4.5589,4.5589,4.559,4.5493,4.5507,4.5582,4.5628,4.5662,4.5704,4.5712,4.5745,4.5774,4.5747,4.5747,4.57,4.5465,4.5405,4.56,4.5598,4.5597,4.5596,4.5595,4.5767,4.5701,4.5817,4.5851,4.5901,4.5969,4.5934,4.6002,4.6025,4.6067,4.601,4.5842,4.5815,4.5795,4.5745,4.6016,4.6016,4.6016,4.6016,4.592,4.5905,4.6016,4.6073,4.6125,4.6105,4.6234,4.6241,4.6238,4.625,4.6207,4.614,4.6121,4.6106,4.6079,4.6032,4.637,4.637,4.637,4.6086,4.6074,4.619,4.6187,4.6224,4.6256,4.6376,4.6442,4.6424,4.6384,4.6259,4.6244,4.6135,4.6101,4.6057,4.6016,4.593,0,0]}]]